IW9GDC-13 Weather Reports


Display with metric or nautical units.
time (UTC)temp
F
wind
direction
speed
MPH
gust
MPH
rain 1hr
in
rain 24hr
in
rain mn
in
humidity
%
barometer
mb
20260831194016 83 315 5.0 11.0 0.00 0.00 0.00 70 1016.2
20260831193516 83 338 3.0 13.0 0.00 0.00 0.00 70 1016.1
20260831193016 83 293 5.0 10.0 0.00 0.00 0.00 69 1016.0
20260831192516 83 293 6.0 12.0 0.00 0.00 0.00 70 1016.1
20260831192017 83 338 6.0 12.0 0.00 0.00 0.00 70 1016.1
20260831191536 83 293 4.0 10.0 0.00 0.00 0.00 70 1016.1
20260831191016 83 315 4.0 10.0 0.00 0.00 0.00 70 1016.2
20260831190516 83 338 5.0 12.0 0.00 0.00 0.00 70 1016.0
20260831190016 83 315 4.0 10.0 0.00 0.00 0.00 70 1016.1
20260831185516 83 315 5.0 11.0 0.00 0.00 0.00 70 1016.1
20260831185016 83 0 5.0 14.0 0.00 0.00 0.00 69 1016.2
20260831184516 83 293 4.0 9.0 0.00 0.00 0.00 68 1016.1
20260831184016 83 338 4.0 9.0 0.00 0.00 0.00 69 1016.1
20260831183516 83 315 4.0 9.0 0.00 0.00 0.00 70 1016.0
20260831183016 83 315 3.0 7.0 0.00 0.00 0.00 70 1016.1
20260831182536 83 338 4.0 14.0 0.00 0.00 0.00 70 1015.9
20260831182017 83 293 4.0 9.0 0.00 0.00 0.00 69 1015.8
20260831181536 83 338 5.0 10.0 0.00 0.00 0.00 69 1015.9
20260831181016 83 248 4.0 15.0 0.00 0.00 0.00 69 1015.8
20260831180536 83 315 4.0 11.0 0.00 0.00 0.00 69 1015.8
20260831180036 83 338 5.0 11.0 0.00 0.00 0.00 69 1015.9
20260831175516 83 338 7.0 13.0 0.00 0.00 0.00 69 1015.9
20260831175016 84 315 4.0 10.0 0.00 0.00 0.00 68 1015.9
20260831174516 84 0 7.0 12.0 0.00 0.00 0.00 68 1015.9
20260831174016 84 338 6.0 12.0 0.00 0.00 0.00 69 1015.9
20260831173516 84 0 4.0 12.0 0.00 0.00 0.00 68 1015.9
20260831173016 84 338 5.0 11.0 0.00 0.00 0.00 67 1015.9
20260831172516 84 315 5.0 12.0 0.00 0.00 0.00 68 1015.8
20260831172016 84 0 4.0 10.0 0.00 0.00 0.00 68 1015.9
20260831171516 84 315 5.0 13.0 0.00 0.00 0.00 68 1015.9
20260831171016 84 338 4.0 12.0 0.00 0.00 0.00 68 1015.9
20260831170516 84 0 5.0 12.0 0.00 0.00 0.00 67 1015.7
20260831170056 85 0 3.0 9.0 0.00 0.00 0.00 66 1015.8
20260831165536 85 315 4.0 9.0 0.00 0.00 0.00 66 1015.9
20260831165016 85 315 4.0 11.0 0.00 0.00 0.00 65 1015.9
20260831164516 85 315 3.0 11.0 0.00 0.00 0.00 64 1015.7
20260831164016 85 0 4.0 10.0 0.00 0.00 0.00 64 1015.7
20260831163516 85 270 5.0 13.0 0.00 0.00 0.00 64 1015.7
20260831163016 85 315 6.0 12.0 0.00 0.00 0.00 65 1015.8
20260831162516 85 338 6.0 12.0 0.00 0.00 0.00 64 1015.9
20260831162016 85 338 6.0 14.0 0.00 0.00 0.00 64 1016.0
20260831161516 85 338 7.0 15.0 0.00 0.00 0.00 63 1016.0
20260831161016 86 0 8.0 14.0 0.00 0.00 0.00 62 1015.9
20260831160516 86 315 4.0 9.0 0.00 0.00 0.00 61 1015.9
20260831160016 87 338 5.0 12.0 0.00 0.00 0.00 59 1015.9
20260831155516 87 293 6.0 12.0 0.00 0.00 0.00 59 1015.7
20260831155016 88 270 4.0 11.0 0.00 0.00 0.00 58 1015.6
20260831154536 88 315 4.0 14.0 0.00 0.00 0.00 58 1015.6
20260831154016 88 315 3.0 11.0 0.00 0.00 0.00 58 1015.5
20260831153535 88 315 5.0 13.0 0.00 0.00 0.00 58 1015.5
20260831153015 88 0 4.0 12.0 0.00 0.00 0.00 58 1015.5
20260831152515 88 23 6.0 12.0 0.00 0.00 0.00 58 1015.3
20260831152016 88 23 5.0 13.0 0.00 0.00 0.00 58 1015.4
20260831151515 88 0 7.0 16.0 0.00 0.00 0.00 58 1015.4
20260831151016 88 23 5.0 18.0 0.00 0.00 0.00 58 1015.4
20260831150516 88 338 6.0 16.0 0.00 0.00 0.00 58 1015.4
20260831150015 89 0 5.0 12.0 0.00 0.00 0.00 57 1015.4
20260831145515 89 293 6.0 13.0 0.00 0.00 0.00 57 1015.4
20260831145015 89 293 6.0 12.0 0.00 0.00 0.00 56 1015.5
20260831144536 88 338 5.0 12.0 0.00 0.00 0.00 58 1015.4
20260831144015 89 45 5.0 13.0 0.00 0.00 0.00 57 1015.4
20260831143516 88 315 5.0 12.0 0.00 0.00 0.00 57 1015.4
20260831143015 88 338 7.0 15.0 0.00 0.00 0.00 57 1015.4
20260831142515 89 293 6.0 12.0 0.00 0.00 0.00 57 1015.5
20260831142015 89 293 6.0 19.0 0.00 0.00 0.00 55 1015.6
20260831141515 90 23 5.0 12.0 0.00 0.00 0.00 54 1015.4
20260831141015 90 315 5.0 10.0 0.00 0.00 0.00 55 1015.5
20260831140516 90 0 6.0 14.0 0.00 0.00 0.00 53 1015.4
20260831140015 90 338 6.0 10.0 0.00 0.00 0.00 53 1015.5
20260831135515 90 0 7.0 14.0 0.00 0.00 0.00 52 1015.6
20260831135015 90 23 4.0 14.0 0.00 0.00 0.00 52 1015.6
20260831134515 91 270 6.0 11.0 0.00 0.00 0.00 52 1015.6
20260831134015 90 293 4.0 10.0 0.00 0.00 0.00 52 1015.6
20260831133515 90 0 7.0 14.0 0.00 0.00 0.00 53 1015.5
20260831133015 91 23 8.0 16.0 0.00 0.00 0.00 51 1015.5
20260831132517 91 270 5.0 14.0 0.00 0.00 0.00 51 1015.6
20260831132017 91 293 3.0 18.0 0.00 0.00 0.00 50 1015.5
20260831131517 91 0 5.0 15.0 0.00 0.00 0.00 49 1015.6
20260831131017 92 0 5.0 11.0 0.00 0.00 0.00 47 1015.6
20260831130517 92 315 6.0 13.0 0.00 0.00 0.00 44 1015.6
20260831130057 93 293 4.0 11.0 0.00 0.00 0.00 42 1015.6
20260831125517 93 270 3.0 11.0 0.00 0.00 0.00 41 1015.6
20260831125017 93 0 5.0 12.0 0.00 0.00 0.00 41 1015.6
20260831124517 93 23 5.0 14.0 0.00 0.00 0.00 39 1015.7
20260831124017 93 270 3.0 8.0 0.00 0.00 0.00 39 1015.7
20260831123517 93 338 7.0 17.0 0.00 0.00 0.00 38 1015.6
20260831123017 93 315 5.0 14.0 0.00 0.00 0.00 37 1015.5
20260831122538 93 315 5.0 13.0 0.00 0.00 0.00 37 1015.5
20260831122017 93 293 5.0 13.0 0.00 0.00 0.00 38 1015.5
20260831121539 94 90 6.0 13.0 0.00 0.00 0.00 37 1015.4
20260831121017 94 0 6.0 15.0 0.00 0.00 0.00 37 1015.5
20260831120517 93 203 4.0 9.0 0.00 0.00 0.00 37 1015.5
20260831120017 93 315 7.0 16.0 0.00 0.00 0.00 45 1015.4
20260831115517 93 0 6.0 15.0 0.00 0.00 0.00 39 1015.5
20260831115037 94 315 4.0 13.0 0.00 0.00 0.00 37 1015.6
20260831114537 94 0 4.0 10.0 0.00 0.00 0.00 36 1015.5
20260831114017 93 0 5.0 13.0 0.00 0.00 0.00 37 1015.5
20260831113517 94 0 6.0 14.0 0.00 0.00 0.00 37 1015.5
20260831113017 94 203 5.0 13.0 0.00 0.00 0.00 38 1015.5
20260831112517 94 23 5.0 13.0 0.00 0.00 0.00 41 1015.5
20260831112017 94 68 3.0 8.0 0.00 0.00 0.00 38 1015.5
20260831111517 94 338 3.0 7.0 0.00 0.00 0.00 37 1015.5
20260831111017 94 248 4.0 13.0 0.00 0.00 0.00 37 1015.5
20260831110517 94 68 4.0 11.0 0.00 0.00 0.00 37 1015.6
20260831110017 94 248 4.0 10.0 0.00 0.00 0.00 37 1015.5
20260831105517 93 270 5.0 13.0 0.00 0.00 0.00 38 1015.6
20260831105017 93 0 6.0 16.0 0.00 0.00 0.00 38 1015.6
20260831104517 93 68 6.0 14.0 0.00 0.00 0.00 35 1015.7
20260831104037 93 315 5.0 11.0 0.00 0.00 0.00 36 1015.8
20260831103517 93 338 4.0 9.0 0.00 0.00 0.00 37 1015.9
20260831103017 93 0 6.0 14.0 0.00 0.00 0.00 38 1015.9
20260831102557 93 338 6.0 18.0 0.00 0.00 0.00 38 1015.9
20260831102017 93 293 6.0 12.0 0.00 0.00 0.00 40 1016.0
20260831101557 93 90 5.0 14.0 0.00 0.00 0.00 40 1015.9
20260831101017 93 315 6.0 18.0 0.00 0.00 0.00 38 1015.8
20260831100517 93 68 6.0 13.0 0.00 0.00 0.00 38 1015.8
20260831100037 93 180 4.0 11.0 0.00 0.00 0.00 39 1015.8
20260831095517 93 113 3.0 11.0 0.00 0.00 0.00 38 1015.8
20260831095017 93 315 5.0 13.0 0.00 0.00 0.00 39 1015.9
20260831094517 93 338 5.0 16.0 0.00 0.00 0.00 40 1015.8
20260831094017 92 315 6.0 12.0 0.00 0.00 0.00 38 1015.9
20260831093517 92 0 5.0 11.0 0.00 0.00 0.00 41 1015.8
20260831093016 92 293 4.0 9.0 0.00 0.00 0.00 43 1015.9
20260831092516 92 338 6.0 13.0 0.00 0.00 0.00 44 1015.9
20260831092017 91 315 4.0 10.0 0.00 0.00 0.00 45 1015.8
20260831091517 91 270 4.0 8.0 0.00 0.00 0.00 42 1016.0
20260831091036 91 225 5.0 9.0 0.00 0.00 0.00 42 1016.0
20260831090536 91 293 5.0 13.0 0.00 0.00 0.00 46 1016.0
20260831090057 91 270 3.0 11.0 0.00 0.00 0.00 45 1016.0
20260831085516 90 293 3.0 8.0 0.00 0.00 0.00 46 1016.0
20260831085036 90 293 4.0 10.0 0.00 0.00 0.00 45 1016.0
20260831084517 90 203 3.0 8.0 0.00 0.00 0.00 48 1015.9
20260831084016 89 270 8.0 13.0 0.00 0.00 0.00 47 1016.0
20260831083537 89 270 6.0 11.0 0.00 0.00 0.00 47 1016.0
20260831083017 89 270 4.0 10.0 0.00 0.00 0.00 48 1015.9
20260831082517 89 270 6.0 12.0 0.00 0.00 0.00 50 1015.8
20260831082016 88 270 8.0 16.0 0.00 0.00 0.00 51 1015.8
20260831081517 88 270 6.0 11.0 0.00 0.00 0.00 52 1015.8
20260831081016 88 270 7.0 12.0 0.00 0.00 0.00 55 1015.7
20260831080517 88 270 9.0 14.0 0.00 0.00 0.00 55 1015.7
20260831080017 88 270 6.0 11.0 0.00 0.00 0.00 55 1015.7
20260831075516 88 270 7.0 12.0 0.00 0.00 0.00 54 1015.6
20260831075017 87 270 7.0 13.0 0.00 0.00 0.00 55 1015.6
20260831074516 87 293 9.0 14.0 0.00 0.00 0.00 55 1015.6
20260831074016 87 270 7.0 13.0 0.00 0.00 0.00 56 1015.5
20260831073517 87 293 8.0 16.0 0.00 0.00 0.00 57 1015.5
20260831073016 87 270 6.0 10.0 0.00 0.00 0.00 58 1015.4
20260831072536 87 293 7.0 13.0 0.00 0.00 0.00 57 1015.4
20260831072016 87 270 7.0 14.0 0.00 0.00 0.00 60 1015.3
20260831071516 86 270 7.0 12.0 0.00 0.00 0.00 60 1015.4
20260831071016 86 270 6.0 11.0 0.00 0.00 0.00 60 1015.3
20260831070516 86 293 8.0 13.0 0.00 0.00 0.00 62 1015.2
20260831070037 85 270 8.0 18.0 0.00 0.00 0.00 61 1015.2
20260831065516 85 270 11.0 20.0 0.00 0.00 0.00 61 1015.3
20260831065016 85 270 10.0 18.0 0.00 0.00 0.00 63 1015.4
20260831064516 85 270 9.0 13.0 0.00 0.00 0.00 63 1015.3
20260831064016 85 270 7.0 12.0 0.00 0.00 0.00 63 1015.3
20260831063516 85 270 6.0 10.0 0.00 0.00 0.00 62 1015.3
20260831063016 85 293 7.0 13.0 0.00 0.00 0.00 62 1015.3
20260831062556 84 270 7.0 12.0 0.00 0.00 0.00 65 1015.2
20260831062016 84 270 10.0 16.0 0.00 0.00 0.00 64 1015.3
20260831061516 84 270 9.0 16.0 0.00 0.00 0.00 64 1015.3
20260831061036 85 293 6.0 17.0 0.00 0.00 0.00 62 1015.4
20260831060516 84 293 7.0 13.0 0.00 0.00 0.00 65 1015.3
20260831060016 84 270 5.0 12.0 0.00 0.00 0.00 65 1015.4
20260831055516 84 293 6.0 14.0 0.00 0.00 0.00 64 1015.3
20260831055036 84 315 7.0 15.0 0.00 0.00 0.00 62 1015.3
20260831054516 84 270 5.0 10.0 0.00 0.00 0.00 64 1015.2
20260831054016 84 293 5.0 11.0 0.00 0.00 0.00 65 1015.4
20260831053516 84 270 7.0 16.0 0.00 0.00 0.00 63 1015.4
20260831053036 84 293 5.0 9.0 0.00 0.00 0.00 62 1015.3
20260831052516 84 315 4.0 9.0 0.00 0.00 0.00 63 1015.3
20260831052056 83 270 6.0 14.0 0.00 0.00 0.00 62 1015.3
20260831051536 83 293 6.0 14.0 0.00 0.00 0.00 63 1015.2
20260831051016 83 270 7.0 18.0 0.00 0.00 0.00 65 1015.2
20260831050516 83 293 6.0 13.0 0.00 0.00 0.00 65 1015.3
20260831050016 83 293 6.0 12.0 0.00 0.00 0.00 64 1015.2
20260831045516 83 293 8.0 16.0 0.00 0.00 0.00 67 1015.2
20260831045036 83 270 6.0 12.0 0.00 0.00 0.00 68 1015.2
20260831044516 83 315 6.0 14.0 0.00 0.00 0.00 67 1015.2
20260831044016 83 293 8.0 18.0 0.00 0.00 0.00 67 1015.1
20260831043516 83 293 6.0 13.0 0.00 0.00 0.00 69 1015.1
20260831043056 83 293 6.0 16.0 0.00 0.00 0.00 68 1015.0
20260831042516 83 293 9.0 16.0 0.00 0.00 0.00 69 1015.1
20260831042016 83 338 9.0 22.0 0.00 0.00 0.00 69 1015.0
20260831041516 83 338 7.0 14.0 0.00 0.00 0.00 69 1015.0
20260831041016 83 315 8.0 18.0 0.00 0.00 0.00 69 1015.0
20260831040516 83 315 8.0 21.0 0.00 0.00 0.00 69 1015.0
20260831040016 83 293 8.0 19.0 0.00 0.00 0.00 69 1015.1
20260831035516 83 338 6.0 14.0 0.00 0.00 0.00 69 1015.1
20260831035016 83 293 6.0 11.0 0.00 0.00 0.00 69 1015.2
20260831034516 83 315 9.0 19.0 0.00 0.00 0.00 69 1015.2
20260831034015 83 315 7.0 15.0 0.00 0.00 0.00 69 1015.2
20260831033516 83 293 5.0 13.0 0.00 0.00 0.00 67 1015.2
20260831033016 83 293 3.0 8.0 0.00 0.00 0.00 68 1015.3
20260831032516 83 293 7.0 12.0 0.00 0.00 0.00 67 1015.4
20260831032015 83 315 7.0 10.0 0.00 0.00 0.00 67 1015.3
20260831031536 83 315 8.0 17.0 0.00 0.00 0.00 67 1015.5
20260831031016 83 293 8.0 11.0 0.00 0.00 0.00 67 1015.6
20260831030515 83 315 6.0 16.0 0.00 0.00 0.00 68 1015.6
20260831030036 83 270 7.0 13.0 0.00 0.00 0.00 68 1015.6
20260831025516 83 315 7.0 15.0 0.00 0.00 0.00 67 1015.6
20260831025016 83 270 5.0 11.0 0.00 0.00 0.00 67 1015.6
20260831024535 83 293 3.0 8.0 0.00 0.00 0.00 66 1015.7
20260831024015 83 270 4.0 9.0 0.00 0.00 0.00 66 1015.7
20260831023535 83 270 5.0 9.0 0.00 0.00 0.00 65 1015.8
20260831023036 83 270 4.0 8.0 0.00 0.00 0.00 66 1015.8
20260831022515 83 270 3.0 10.0 0.00 0.00 0.00 67 1015.8
20260831022016 84 315 4.0 8.0 0.00 0.00 0.00 67 1015.8
20260831021516 84 270 5.0 9.0 0.00 0.00 0.00 66 1015.7
20260831021016 84 315 5.0 13.0 0.00 0.00 0.00 65 1015.7
20260831020515 84 293 4.0 10.0 0.00 0.00 0.00 63 1015.6
20260831020035 84 315 11.0 19.0 0.00 0.00 0.00 63 1015.7
20260831015516 84 270 7.0 17.0 0.00 0.00 0.00 66 1015.7
20260831015015 84 248 5.0 13.0 0.00 0.00 0.00 66 1015.7
20260831014515 84 270 9.0 16.0 0.00 0.00 0.00 66 1015.7
20260831014015 84 293 9.0 15.0 0.00 0.00 0.00 67 1015.7
20260831013515 84 270 8.0 14.0 0.00 0.00 0.00 67 1015.7
20260831013016 84 315 8.0 17.0 0.00 0.00 0.00 66 1015.6
20260831012516 84 293 5.0 11.0 0.00 0.00 0.00 66 1015.7
20260831012015 84 293 7.0 16.0 0.00 0.00 0.00 67 1015.6
20260831011515 84 293 8.0 17.0 0.00 0.00 0.00 66 1015.5
20260831011015 84 315 9.0 19.0 0.00 0.00 0.00 65 1015.4
20260831010515 84 270 9.0 17.0 0.00 0.00 0.00 59 1015.4
20260831010015 85 270 9.0 17.0 0.00 0.00 0.00 60 1015.5
20260831005515 85 270 9.0 17.0 0.00 0.00 0.00 57 1015.5
20260831005017 85 270 12.0 29.0 0.00 0.00 0.00 56 1015.4
20260831004517 85 270 11.0 24.0 0.00 0.00 0.00 59 1015.6
20260831004017 85 270 11.0 21.0 0.00 0.00 0.00 58 1015.7
20260831003517 85 270 13.0 25.0 0.00 0.00 0.00 60 1015.7
20260831003038 85 293 10.0 17.0 0.00 0.00 0.00 61 1015.6
20260831002537 85 315 11.0 21.0 0.00 0.00 0.00 58 1015.7
20260831002017 85 315 11.0 19.0 0.00 0.00 0.00 57 1015.7
20260831001517 85 315 9.0 19.0 0.00 0.00 0.00 58 1015.7
20260831001017 85 270 10.0 23.0 0.00 0.00 0.00 60 1015.8
20260831000517 85 270 11.0 18.0 0.00 0.00 0.00 61 1015.9
20260831000017 85 270 10.0 20.0 0.00 0.00 0.00 62 1015.8
20260830235517 85 270 6.0 18.0 0.00 0.00 0.00 62 1015.8
20260830235037 85 315 7.0 17.0 0.00 0.00 0.00 63 1015.7
20260830234537 85 315 7.0 18.0 0.00 0.00 0.00 62 1015.7
20260830234017 85 315 7.0 15.0 0.00 0.00 0.00 62 1015.7
20260830233537 85 293 8.0 15.0 0.00 0.00 0.00 61 1015.8
20260830233017 85 315 9.0 18.0 0.00 0.00 0.00 62 1015.7
20260830232517 85 270 6.0 16.0 0.00 0.00 0.00 62 1015.6
20260830232017 85 270 6.0 11.0 0.00 0.00 0.00 64 1015.7
20260830231517 86 293 7.0 21.0 0.00 0.00 0.00 64 1015.7
20260830231017 86 338 7.0 15.0 0.00 0.00 0.00 65 1015.6
20260830230517 86 338 7.0 16.0 0.00 0.00 0.00 64 1015.6
20260830230017 86 270 8.0 18.0 0.00 0.00 0.00 68 1015.6
20260830225517 86 315 7.0 17.0 0.00 0.00 0.00 68 1015.6
20260830225017 86 338 7.0 14.0 0.00 0.00 0.00 69 1015.5
20260830224517 86 315 5.0 13.0 0.00 0.00 0.00 69 1015.5
20260830224017 86 315 7.0 15.0 0.00 0.00 0.00 70 1015.6
20260830223517 86 315 7.0 15.0 0.00 0.00 0.00 70 1015.5
20260830223037 86 315 6.0 17.0 0.00 0.00 0.00 70 1015.6
20260830222517 86 315 7.0 17.0 0.00 0.00 0.00 70 1015.5
20260830222017 86 315 2.0 6.0 0.00 0.00 0.00 70 1015.5
20260830221517 86 315 4.0 10.0 0.00 0.00 0.00 70 1015.7
20260830221017 86 338 5.0 12.0 0.00 0.00 0.00 71 1015.7
20260830220517 86 315 2.0 8.0 0.00 0.00 0.00 70 1015.5
20260830220017 86 338 4.0 9.0 0.00 0.00 0.00 70 1015.5
20260830215517 86 315 3.0 7.0 0.00 0.00 0.00 69 1015.5
20260830215017 86 338 4.0 9.0 0.00 0.00 0.00 68 1015.5
20260830214517 86 23 5.0 13.0 0.00 0.00 0.00 68 1015.5
20260830214036 86 0 4.0 10.0 0.00 0.00 0.00 67 1015.5
20260830213536 86 315 8.0 14.0 0.00 0.00 0.00 67 1015.6
20260830213017 86 315 5.0 14.0 0.00 0.00 0.00 67 1015.7
20260830212517 86 0 4.0 12.0 0.00 0.00 0.00 68 1015.7
20260830212016 86 0 5.0 11.0 0.00 0.00 0.00 69 1015.8
20260830211516 86 315 3.0 8.0 0.00 0.00 0.00 69 1015.8
20260830211017 86 68 1.0 4.0 0.00 0.00 0.00 72 1015.9
20260830210517 86 45 2.0 6.0 0.00 0.00 0.00 72 1015.9
20260830210016 86 338 5.0 13.0 0.00 0.00 0.00 68 1015.9
20260830205516 86 23 3.0 7.0 0.00 0.00 0.00 69 1015.7
20260830205017 86 338 4.0 9.0 0.00 0.00 0.00 69 1015.7
20260830204516 86 338 4.0 12.0 0.00 0.00 0.00 69 1015.6
20260830204016 86 338 3.0 8.0 0.00 0.00 0.00 69 1015.7
20260830203516 86 338 4.0 8.0 0.00 0.00 0.00 70 1015.7
20260830203016 86 293 4.0 8.0 0.00 0.00 0.00 72 1015.6
20260830202516 86 338 6.0 14.0 0.00 0.00 0.00 73 1015.5
20260830202036 85 68 5.0 11.0 0.00 0.00 0.00 78 1015.4
20260830201516 86 90 5.0 11.0 0.00 0.00 0.00 78 1015.4
20260830201056 86 315 7.0 13.0 0.00 0.00 0.00 77 1015.4
20260830200516 86 113 2.0 13.0 0.00 0.00 0.00 76 1015.3
20260830200016 86 293 2.0 8.0 0.00 0.00 0.00 73 1015.4
20260830195518 86 68 2.0 8.0 0.00 0.00 0.00 74 1015.3
20260830195116 87 315 2.0 7.0 0.00 0.00 0.00 73 1015.3